Tracking 18980 objects as of 18-Feb-2018
HD Live streaming from Space Station
objects crossing your sky now

ARIANE 5 R/B

Track ARIANE 5 R/B now!


NORAD ID: 43059
Int'l Code: 2017-079E
Perigee: 22,913.4 km
Apogee: 22,925.2 km
Inclination: 56.9 °
Period: 831.5 minutes
Semi major axis: 29290 km
RCS: Unknown
Launch date: December 12, 2017
Source: European Space Agency (ESA)
Launch site: FRENCH GUIANA (FRGUI)

Note: This is a ROCKET BODY
aabbcc
Your satellite tracking list
Your tracking list is empty




NASA's NSSDC Master Catalog

Two Line Element Set (TLE):
1 43059U 17079E   18047.41143170 -.00000011  00000-0  00000+0 0  9998
2 43059  56.8954 304.9960 0002029 241.2009 118.8453  1.73187764  1131
Source of the keplerian elements: AFSPC